sat.trackr.live / text

‹ back to catalog

UMBRA-11

NORAD 66748 · 2025-276CL

PAYLOAD ACTIVE UNKNOWN

§ Identity

Operator
Country
US
Launch date
2025-11-28
Launch site
AFWTR
Launch vehicle
Mass (kg)
RCS (m²)

External: N2YO · Heavens-Above · Gunter

§ Orbital elements

Epoch: 2026-05-25T04:16:20.915040Z

Period
94.39 min
Inclination
97.4205°
Eccentricity
0.0003343
Mean motion
15.25556084 rev/d
Perigee alt
486.8 km
Apogee alt
491.4 km
Semi-major
6,867.3 km
B*
8.7500e-4
RAAN
219.9688°
Arg perigee
84.7183°
Mean anomaly
275.4437°
Rev number
2,698

§ Raw data

UMBRA-111 66748U 25276CL  26145.17801985  .00022176  00000+0  87500-3 0  99902 66748  97.4205 219.9688 0003343  84.7183 275.4437 15.25556084 26985

JSON: /api/v1/satellites/66748 · /tle

For live sub-satellite position, see the globe view (requires WebGL).

§ Visibility from observer

Set your observer location to see the next 7 days of passes ≥ 10°. The values pass through the URL so the page stays shareable.

No JS? Fill the form by hand. The geolocation button needs JavaScript.